Location: Cabeza de los Veneras
(40.2000°N, 5.2000°W)
Time: 06:11:04
(UTC+00:00)

USA 281 - Visible Passes

Search period start: 13 July 2024 00:00
Search period end: 23 July 2024 00:00
Orbit: 1077 x 1082 km, 106.0° (Epoch: 10 July)

Date Brightness Start Highest point End Pass type
(mag) Time Alt. Az. Time Alt. Az. Time Alt. Az.
13 Jul 3.1 00:41:51 64° SW 00:42:22 66° WSW 00:48:55 10° NNW visible
13 Jul 5.4 22:07:34 10° ENE 22:09:43 12° NE 22:11:52 10° NNE visible
13 Jul 3.6 23:51:10 44° ESE 23:52:53 55° ENE 23:59:16 10° NNW visible
14 Jul 4.3 01:38:02 27° W 01:38:02 27° W 01:43:04 10° NW visible
14 Jul 4.7 23:00:29 17° E 23:03:47 26° NE 23:08:58 10° N visible
15 Jul 3.1 00:47:21 64° SW 00:47:46 66° WSW 00:54:19 10° NNW visible
15 Jul 5.4 22:12:54 10° ENE 22:15:07 12° NE 22:17:20 10° NNE visible
15 Jul 3.6 23:56:41 45° ESE 23:58:17 56° ENE 00:04:40 10° NNW visible
16 Jul 4.3 01:43:33 26° W 01:43:33 26° W 01:48:27 10° NW visible
16 Jul 4.7 23:05:59 18° E 23:09:11 26° NE 23:14:23 10° N visible
17 Jul 3.1 00:52:52 64° SW 00:53:10 65° WSW 00:59:43 10° NNW visible
17 Jul 5.4 22:18:14 10° ENE 22:20:30 12° NE 22:22:46 10° NNE visible
18 Jul 3.6 00:02:11 46° ESE 00:03:41 56° ENE 00:10:05 10° NNW visible
18 Jul 4.3 01:49:03 26° W 01:49:03 26° W 01:53:50 10° NW visible
18 Jul 4.7 23:11:31 18° E 23:14:34 26° NE 23:19:48 10° N visible
19 Jul 3.2 00:58:23 64° WSW 00:58:34 65° WSW 01:05:07 10° NNW visible
19 Jul 5.4 22:23:34 10° ENE 22:25:53 12° NE 22:28:13 10° NNE visible
20 Jul 3.6 00:07:42 48° ESE 00:09:04 57° ENE 00:15:29 10° NNW visible
20 Jul 4.4 01:54:34 26° W 01:54:34 26° W 01:59:12 10° NW visible
20 Jul 4.7 23:17:02 19° E 23:19:59 26° NE 23:25:13 10° N visible
21 Jul 3.2 01:03:53 64° WSW 01:03:58 64° WSW 01:10:31 10° NNW visible
21 Jul 5.4 22:28:53 10° ENE 22:31:17 12° NE 22:33:40 10° NNE visible
22 Jul 3.5 00:13:13 50° E 00:14:29 57° ENE 00:20:54 10° NNW visible
22 Jul 4.4 02:00:05 25° W 02:00:05 25° W 02:04:35 10° NW visible
22 Jul 4.7 23:22:32 20° E 23:25:22 26° NE 23:30:38 10° N visible
